Погода в Верховине

Украина / Ивано-Франковская область     48°09′06″N   24°48′49″E
темп.,
°C
ветер,
м/с
пор.,
м/с
влажн.,
%
обл.,
%
осадки,
мм/ч
давл.,
гПа
погр.,
м
7 марта, вс
вс723:00−10зюз229236 0.0 103222
02:00−10юз228817 0.0 103232
05:00−10юз32880 0.0 102955
08:00−7юз39810 0.0 1027487
11:00−3зюз410660 0.0 1025684
14:00−1зюз411595 0.0 1022811
17:00−2зюз310650 0.0 1020670
20:00−7зюз33830 0.0 102089
8 марта, пн
пн823:00−8юз33840 0.0 102079
02:00−8юз32870 0.0 101976
05:00−8юз22911 0.0 101750
08:00−6зюз238620 0.0 1017156
11:00−1з2563100 0.0 10171059
14:000з1369100 0.2 1016858
17:00−3ссв2393100 3.4 1017353
20:00−6ссз1494100 5.8 1020340
9 марта, вт
вт923:00−9зсз119496 0.2 102223
02:00−9зюз119597 0.3 102221
05:00−11юз119336 0.0 102221
08:00−9ююз118551 0.0 102238
11:00−3в116683 0.0 1021796
14:00−2всв126781 0.0 1021877
17:00−4всв2287100 0.1 1020341
20:00−7в119799 0.3 102224
10 марта, ср
ср1023:00−8ююв009897 0.1 102221
02:00−8ююз119699 0.1 102121
05:00−8юз1193100 0.0 102121
08:00−6сз1185100 0.0 1022118
11:00−2с226582 0.0 10221087
14:00−2ссв227691 0.4 1022730
17:00−4ссв2384100 0.6 1022581
20:00−6вюв0196100 0.8 102425
11 марта, чт
чт1123:00−8ююз119456 0.0 102521
02:00−8юз229028 0.0 102627
05:00−8юз22920 0.0 102434
08:00−6юз238614 0.0 1024113
11:000юз386233 0.0 1022833
14:00+1юз396767 0.0 1019971
17:000юз31580100 0.0 10171008
20:00−1зюз62082100 0.0 1017821